Regional Weather Roundup
Issued by NWS

Home | Current Version | Previous Version | Graphics & Text | Print | Product List | Glossary On
Versions: 1 2 3 4 5 6 7 8 9 10 11 12 13 14 15 16 17 18 19 20 21 22 23 24 25 26 27 28 29 30 31 32 33 34 35 36 37 38 39 40 41 42 43 44 45 46 47 48 49 50
000
ASUS43 KIND 171609
RWRIN

WEATHER ROUNDUP FOR INDIANA
NATIONAL WEATHER SERVICE INDIANAPOLIS IN
1100 AM EST FRI NOV 17 2017

NOTE: "FAIR" INDICATES FEW OR NO CLOUDS BELOW 12,000 FEET WITH NO
SIGNIFICANT WEATHER AND/OR OBSTRUCTIONS TO VISIBILITY.

* - STATION DOES NOT REPORT WEATHER SUCH AS PRECIPITATION OR FOG.

+ - STATION NOT QUALITY CONTROLLED BY THE NATIONAL WEATHER SERVICE.
    USE DATA WITH CAUTION...ESPECIALLY DEWPOINT AND RELATIVE
    HUMIDITY OBSERVATIONS.

INZ001>003-010>013-019-020-171700-
NORTHWEST INDIANA

CITY           SKY/WX    TMP DP  RH WIND       PRES   REMARKS
GARY /AIRPORT/ PTSUNNY   41  32  70 SE10      30.07F
KNOX *+        CLOUDY    39  32  75 SE17G24   30.10F WCI  30
LA PORTE +     MOSUNNY   38  32  80 SE15G21   30.10F WCI  29
MICHIGAN CITY+ MOSUNNY   37  32  81 S8G18     30.08F WCI  31
MONTICELLO +   CLOUDY    38  31  77 SE10G17   30.10F WCI  31
RENSSELAER +   CLOUDY    37  30  75 SE20      30.09F WCI  27
VALPARAISO     CLOUDY    42  33  70 SE12G20   30.08F

$$

LMZ046-743>745-171700-
SOUTHERN LAKE MICHIGAN

STATION/POSITION TIME  TEMP    WIND        PRES    WAVE
                       AIR SEA DIR/SP/G            HT
                 (UTC) (F)     (DEG/KT/KT) (MB)    (FT)
BURNS HARBOR     1540   39     160/  7/ 14 1019.0F
MICHIGAN CITY    1540   37     150/ 13/ 17   N/A

$$

INZ004-005-014>016-021>024-171700-
NORTH CENTRAL INDIANA

CITY           SKY/WX    TMP DP  RH WIND       PRES   REMARKS
ELKHART        CLOUDY    39  30  70 S15       30.12F WCI  31
GOSHEN         PTSUNNY   40  30  67 SE16G25   30.13F WCI  31
LOGANSPORT +   CLOUDY    37  32  81 SE16      30.14F WCI  28
PERU/GRISSOM   MOSUNNY   39  33  78 SE17      30.13F WCI  30
ROCHESTER +    CLOUDY    41  34  75 S10       30.13F
SOUTH BEND     MOSUNNY   38  32  79 SE21      30.11F WCI  28
WARSAW +       PTSUNNY   37  32  81 SE7G18    30.13F WCI  32

$$

INZ006>009-017-018-025>027-171700-
NORTHEAST INDIANA

CITY           SKY/WX    TMP DP  RH WIND       PRES   REMARKS
AUBURN +       CLOUDY    41  32  70 SE7       30.17S
FORT WAYNE     PTSUNNY   42  33  70 S18G24    30.17F
HUNTINGTON +   PTSUNNY   39  32  75 SE10G18   30.16F WCI  32
KENDALLVILLE + CLOUDY    39  32  76 S12       30.15F WCI  32

$$

INZ028-029-035-036-043>045-051>053-171700-
WEST CENTRAL INDIANA

CITY           SKY/WX    TMP DP  RH WIND       PRES   REMARKS
CRAWFORDSVL +  MOSUNNY   36  32  87 SE15      30.11F WCI  26
GREENCASTLE +  CLOUDY    36  32  87 SE10      30.12F WCI  28
LAFAYETTE      CLOUDY    39  32  76 SE13      30.11F WCI  31
TERRE HAUTE    PTSUNNY   36  31  82 S14       30.14F WCI  27

$$

INZ030>032-037>040-046>048-054>057-064-065-171700-
CENTRAL INDIANA

CITY           SKY/WX    TMP DP  RH WIND       PRES   REMARKS
ANDERSON       SUNNY     39  32  75 SE12G17   30.17F WCI  32
CP ATTERBURY + MOSUNNY   37  32  81 SE10      30.17F WCI  30
COLUMBUS       PTSUNNY   37  30  75 SE9       30.19F WCI  31
FISHERS *+     SUNNY     39  36  87 SE13      30.14F WCI  32
FRANKFORT +    MOSUNNY   42  34  73 S13       30.13F
GREENWOOD *+   SUNNY     41  33  74 SE15      30.15F
INDIANAPOLIS   PTSUNNY   38  31  76 SE14      30.14F WCI  30
-EAGLE CREEK   SUNNY     38  29  70 SE14G20   30.13F WCI  30
KOKOMO +       MOSUNNY   39  32  76 SE14      30.15F WCI  31
MARION +       PTSUNNY   38  32  77 S13       30.16F HAZE    WCI  31
MT COMFORT *+  SUNNY     39  34  81 S12       30.16S WCI  32
SHELBYVILLE    SUNNY     40  31  70 SE14      30.16F WCI  32
ZIONSVILLE +   SUNNY     37  32  80 SE13      30.13F WCI  29

$$

INZ033-034-041-042-049-050-058-059-171700-
EAST CENTRAL INDIANA

CITY           SKY/WX    TMP DP  RH WIND       PRES   REMARKS
MUNCIE         SUNNY     41  31  67 SE10      30.16F
RICHMOND +     SUNNY     36  32  87 SE15      30.20S WCI  26

$$

INZ060-061-067>069-081>083-085>088-171700-
SOUTHWEST INDIANA

CITY           SKY/WX    TMP DP  RH WIND       PRES   REMARKS
EVANSVILLE     CLOUDY    36  36 100 SE6       30.17S FOG     WCI  31
HUNTINGBURG +  CLOUDY    39  34  82 E9        30.16F WCI  33
WASHINGTON +   CLOUDY    37  33  87 SE9       30.16S WCI  30

$$

INZ062-063-066-070>080-084-089>092-171700-
SOUTH CENTRAL AND SOUTHEAST INDIANA

CITY           SKY/WX    TMP DP  RH WIND       PRES   REMARKS
BEDFORD +      SUNNY     37  32  81 SE14      30.16F WCI  29
BLOOMINGTON    CLOUDY    38  31  76 SE10      30.14F WCI  31
MADISON *+     SUNNY     41  32  70 E9        30.21F
NORTH VERNON + SUNNY     37  30  75 SE7       30.18F WCI  32
SEYMOUR +      MOSUNNY   41  32  70 SE7       30.18F

$$





USA.gov is the U.S. government's official web portal to all federal, state and local government web resources and services.